Weather History for KTCM - February, 2011

Change the Weather History Date:

Thursday, February 24, 2011

  Actual Average Record
Temperature  
Mean Temperature 30 °F -  
Max Temperature 33 °F 48 °F 62 °F (2005)
Min Temperature 27 °F 30 °F 18 °F (1993)
Degree Days  
Heating Degree Days 35    
Moisture  
Dew Point 26 °F    
Average Humidity 85    
Maximum Humidity 100    
Minimum Humidity 60    
Precipitation  
Precipitation 0.08 in - - ()
Snow  
Snow 0.00 in - - ()
Snow Depth 2.00 in    
Sea Level Pressure  
Sea Level Pressure 30.01 in    
Wind  
Wind Speed 3 mph (NNE)    
Max Wind Speed 9 mph    
Max Gust Speed -    
Visibility 8 miles    
Events Fog , Rain , Snow    
Averages and records for this station are not official NWS values.
T = Trace of Precipitation, MM = Missing Value Source: NWS Daily Summary

Daily Weather History Graph

Daily Weather History Graph

Search for Another Location

Airport or City:

Trip Planner

Search our weather history database for the weather conditions in past years. The results will help you decide how hot, cold, wet, or windy it might be!

Date:

Astronomy

Feb. 24, 2011 Rise Set
Actual Time 6:59 AM PST 5:47 PM PST
Civil Twilight 6:28 AM PST 6:18 PM PST
Nautical Twilight 5:53 AM PST 6:53 PM PST
Astronomical Twilight 5:17 AM PST 7:29 PM PST
Moon 1:21 AM PST (2/24) 10:03 AM PST (2/24)
Length of Visible Light 11h 49m
Length of Day
10h 48m
Waning Gibbous, 52% of the Moon is Illuminated
Feb 24
Waning Gibbous
Feb 24
Last Quarter
Mar 4
New
Mar 12
First Quarter
Mar 19
Full

Hourly Weather History & Observations

Time (PST) Temp. Windchill Dew Point Humidity Pressure Visibility Wind Dir Wind Speed Gust Speed Precip Events Conditions
12:07 AM 28.4 °F 23.3 °F 28.4 °F 100% 29.90 in 1.5 mi NNE 4.6 mph - N/A Snow Light Snow
12:09 AM 28.4 °F 24.6 °F 28.4 °F 100% 29.90 in 1.8 mi NE 3.5 mph - N/A Snow Light Snow
12:11 AM 28.4 °F - 28.4 °F 100% 29.90 in 2.0 mi Calm Calm - N/A Snow Light Snow
12:15 AM 28.4 °F - 28.4 °F 100% 29.90 in 2.5 mi Calm Calm - N/A Snow Light Snow
12:19 AM 28.4 °F - 28.4 °F 100% 29.90 in 2.5 mi Calm Calm - N/A Snow Light Snow
12:27 AM 28.4 °F - 28.4 °F 100% 29.90 in 3.0 mi Calm Calm - N/A Snow Light Snow
12:55 AM 28.9 °F - 27.3 °F 94% 29.91 in 8.0 mi Calm Calm - 0.01 in Snow Light Snow
1:13 AM 28.4 °F - 26.6 °F 93% 29.91 in 10.0 mi Calm Calm - N/A   Overcast
1:26 AM 28.4 °F 24.6 °F 26.6 °F 93% 29.91 in 10.0 mi Variable 3.5 mph - N/A Snow Light Snow
1:46 AM 28.4 °F - 26.6 °F 93% 29.92 in 10.0 mi Calm Calm - N/A   Overcast
1:55 AM 28.2 °F - 25.7 °F 90% 29.92 in 10.0 mi Calm Calm - 0.02 in   Overcast
2:55 AM 28.8 °F - 26.6 °F 92% 29.93 in 10.0 mi Calm Calm - 0.01 in   Overcast
3:09 AM 28.4 °F - 26.6 °F 93% 29.93 in 9.0 mi Calm Calm - N/A   Overcast
3:18 AM 28.4 °F - 26.6 °F 93% 29.93 in 10.0 mi Calm Calm - N/A   Overcast
3:21 AM 28.4 °F - 26.6 °F 93% 29.93 in 10.0 mi Calm Calm - N/A   Overcast
3:55 AM 28.4 °F 24.6 °F 25.9 °F 90% 29.94 in 10.0 mi NE 3.5 mph - 0.01 in   Overcast
3:58 AM 28.4 °F - 26.6 °F 93% 29.94 in 10.0 mi Calm Calm - N/A   Overcast
4:55 AM 28.0 °F - 25.0 °F 88% 29.94 in 10.0 mi Calm Calm - N/A   Overcast
5:19 AM 28.4 °F 24.6 °F 24.8 °F 86% 29.94 in 10.0 mi Variable 3.5 mph - N/A   Overcast
5:55 AM 28.0 °F 21.7 °F 24.8 °F 88% 29.94 in 10.0 mi Variable 5.8 mph - N/A   Overcast
6:55 AM 27.7 °F - 23.7 °F 85% 29.94 in 10.0 mi Calm Calm - N/A   Mostly Cloudy
7:55 AM 27.7 °F - 23.9 °F 86% 29.96 in 10.0 mi Calm Calm - N/A   Mostly Cloudy
8:15 AM 28.4 °F 23.3 °F 24.8 °F 86% 29.96 in 10.0 mi Variable 4.6 mph - N/A   Mostly Cloudy
8:33 AM 28.4 °F - 24.8 °F 86% 29.96 in 10.0 mi Calm Calm - N/A   Mostly Cloudy
8:55 AM 28.8 °F - 24.8 °F 85% 29.97 in 10.0 mi Calm Calm - 0.00 in   Overcast
8:59 AM 28.4 °F - 24.8 °F 86% 29.97 in 10.0 mi Calm Calm - N/A   Overcast
9:02 AM 28.4 °F - 24.8 °F 86% 29.97 in 9.0 mi Calm Calm - N/A   Overcast
9:20 AM 28.4 °F - 24.8 °F 86% 29.98 in 2.5 mi Calm Calm - N/A   Overcast
9:30 AM 28.4 °F - 24.8 °F 86% 29.99 in 3.0 mi Calm Calm - N/A Snow Light Snow
9:43 AM 28.4 °F - 26.6 °F 93% 29.99 in 5.0 mi Calm Calm - N/A Snow Light Snow
9:55 AM 29.1 °F - 26.1 °F 88% 29.99 in 10.0 mi Calm Calm - 0.00 in Snow Light Snow
10:35 AM 30.2 °F - 26.6 °F 86% 29.99 in 10.0 mi Calm Calm - N/A   Overcast
10:40 AM 30.2 °F - 26.6 °F 86% 29.99 in 10.0 mi Calm Calm - N/A   Overcast
10:44 AM 30.2 °F - 26.6 °F 86% 29.99 in 10.0 mi Calm Calm - N/A   Overcast
10:55 AM 30.6 °F - 26.8 °F 86% 30.00 in 10.0 mi Calm Calm - 0.00 in   Overcast
10:57 AM 30.2 °F 26.7 °F 26.6 °F 86% 30.00 in 10.0 mi NE 3.5 mph - N/A   Overcast
11:12 AM 30.2 °F - 26.6 °F 86% 30.00 in 10.0 mi Calm Calm - N/A   Overcast
11:17 AM 30.2 °F 26.7 °F 26.6 °F 86% 30.01 in 10.0 mi NE 3.5 mph - N/A Snow Light Snow
11:55 AM 31.8 °F 26.2 °F 26.8 °F 82% 30.01 in 10.0 mi NE 5.8 mph - 0.00 in Snow Light Snow
11:58 AM 32.0 °F 27.5 °F 26.6 °F 80% 30.02 in 10.0 mi NE 4.6 mph - N/A Snow Light Snow
12:15 PM 32.0 °F 26.4 °F 26.6 °F 80% 30.02 in 10.0 mi NNE 5.8 mph - N/A Rain Light Rain
12:17 PM 32.0 °F 25.6 °F 26.6 °F 80% 30.02 in 10.0 mi NNE 6.9 mph - N/A Rain Light Rain
12:27 PM 32.0 °F 27.5 °F 26.6 °F 80% 30.02 in 10.0 mi Variable 4.6 mph - N/A   Scattered Clouds
12:33 PM 32.0 °F 25.6 °F 26.6 °F 80% 30.02 in 10.0 mi North 6.9 mph - N/A   Mostly Cloudy
12:35 PM 32.0 °F 26.4 °F 26.6 °F 80% 30.02 in 10.0 mi North 5.8 mph - N/A   Mostly Cloudy
12:55 PM 33.1 °F 28.7 °F 27.3 °F 79% 30.02 in 10.0 mi Variable 4.6 mph - 0.00 in   Mostly Cloudy
1:08 PM 33.8 °F 27.7 °F 26.6 °F 75% 30.02 in 10.0 mi Variable 6.9 mph - N/A   Overcast
1:09 PM 33.8 °F 27.7 °F 26.6 °F 75% 30.02 in 10.0 mi Variable 6.9 mph - N/A   Overcast
1:11 PM 33.8 °F 28.6 °F 26.6 °F 75% 30.02 in 10.0 mi Variable 5.8 mph - N/A   Mostly Cloudy
1:14 PM 33.8 °F 28.6 °F 26.6 °F 75% 30.02 in 10.0 mi Variable 5.8 mph - N/A   Mostly Cloudy
1:24 PM 33.8 °F 27.7 °F 26.6 °F 75% 30.03 in 10.0 mi North 6.9 mph - N/A   Overcast
1:55 PM 33.4 °F - 26.6 °F 76% 30.04 in 10.0 mi Calm Calm - 0.01 in   Overcast
2:15 PM 33.8 °F 29.6 °F 26.6 °F 75% 30.04 in 10.0 mi Variable 4.6 mph - N/A   Overcast
2:17 PM 33.8 °F 29.6 °F 26.6 °F 75% 30.04 in 10.0 mi NNE 4.6 mph - N/A   Overcast
2:18 PM 33.8 °F 29.6 °F 26.6 °F 75% 30.04 in 10.0 mi NNE 4.6 mph - N/A   Overcast
2:23 PM 33.8 °F - 26.6 °F 75% 30.04 in 10.0 mi Calm Calm - N/A Rain Light Rain
2:39 PM 33.8 °F 27.7 °F 28.4 °F 81% 30.04 in 10.0 mi NNE 6.9 mph - N/A Rain Light Rain
2:55 PM 33.3 °F 28.9 °F 28.8 °F 84% 30.04 in 10.0 mi North 4.6 mph - 0.00 in Snow Light Snow
3:00 PM 32.0 °F 24.8 °F 28.4 °F 87% 30.02 in 1.5 mi NNW 8.1 mph - N/A Snow Light Snow
3:09 PM 32.0 °F 24.2 °F 28.4 °F 87% 30.05 in 2.0 mi North 9.2 mph - N/A Snow Light Snow Showers
3:18 PM 32.0 °F 27.5 °F 26.6 °F 80% 30.06 in 3.0 mi NE 4.6 mph - N/A Snow Light Snow
3:19 PM 32.0 °F 27.5 °F 26.6 °F 80% 30.06 in 2.5 mi NE 4.6 mph - N/A Snow Light Snow
3:20 PM 32.0 °F 26.4 °F 26.6 °F 80% 30.06 in 2.0 mi NE 5.8 mph - N/A Snow Light Snow
3:21 PM 30.2 °F 25.4 °F 26.6 °F 86% 30.06 in 1.8 mi Variable 4.6 mph - N/A Snow Light Snow
3:22 PM 30.2 °F 26.7 °F 26.6 °F 86% 30.06 in 1.5 mi Variable 3.5 mph - N/A Snow Light Snow
3:24 PM 30.2 °F 24.3 °F 26.6 °F 86% 30.06 in 1.0 mi Variable 5.8 mph - N/A Snow Light Snow
3:29 PM 30.2 °F 25.4 °F 28.4 °F 93% 30.06 in 1.0 mi Variable 4.6 mph - N/A Snow Light Snow
3:38 PM 30.2 °F 24.3 °F 28.4 °F 93% 30.03 in 0.8 mi NNE 5.8 mph - N/A Snow Light Snow Showers
3:49 PM 30.2 °F 25.4 °F 28.4 °F 93% 30.06 in 0.5 mi Variable 4.6 mph - N/A Fog , Snow Light Freezing Fog
3:50 PM 30.2 °F 25.4 °F 28.4 °F 93% 30.06 in 0.5 mi NNE 4.6 mph - N/A Fog , Snow Light Freezing Fog
3:55 PM 30.4 °F 25.6 °F 28.2 °F 92% 30.06 in 0.5 mi Variable 4.6 mph - 0.01 in Fog , Snow Light Freezing Fog
3:56 PM 30.2 °F 25.4 °F 28.4 °F 93% 30.06 in 0.8 mi NNE 4.6 mph - N/A Snow Light Snow
4:12 PM 30.2 °F 26.7 °F 28.4 °F 93% 30.06 in 1.0 mi Variable 3.5 mph - N/A Snow Light Snow Showers
4:26 PM 30.2 °F 25.4 °F 26.6 °F 86% 30.07 in 3.0 mi Variable 4.6 mph - N/A Snow Light Snow
4:43 PM 30.2 °F 25.4 °F 26.6 °F 86% 30.07 in 10.0 mi NE 4.6 mph - N/A Snow Light Snow
4:54 PM 30.2 °F 24.3 °F 26.6 °F 86% 30.07 in 10.0 mi NE 5.8 mph - N/A   Partly Cloudy
4:55 PM 29.8 °F 23.9 °F 25.9 °F 85% 30.07 in 10.0 mi NE 5.8 mph - 0.01 in   Partly Cloudy
5:41 PM 30.2 °F - 24.8 °F 80% 30.09 in 10.0 mi Calm Calm - N/A   Overcast
5:55 PM 29.3 °F 24.3 °F 24.8 °F 83% 30.09 in 10.0 mi NE 4.6 mph - N/A   Overcast
6:01 PM 30.2 °F 24.3 °F 24.8 °F 80% 30.09 in 10.0 mi NNE 5.8 mph - N/A   Overcast
6:55 PM 28.0 °F 24.2 °F 23.5 °F 83% 30.11 in 10.0 mi Variable 3.5 mph - N/A   Clear
7:55 PM 28.4 °F 23.3 °F 20.5 °F 72% 30.12 in 10.0 mi NNE 4.6 mph - N/A   Overcast
8:23 PM 28.4 °F 23.3 °F 19.4 °F 69% 30.13 in 10.0 mi NNE 4.6 mph - N/A   Overcast
8:36 PM 28.4 °F 23.3 °F 17.6 °F 64% 30.13 in 10.0 mi NNE 4.6 mph - N/A   Overcast
8:55 PM 28.2 °F 23.1 °F 18.0 °F 65% 30.14 in 10.0 mi Variable 4.6 mph - N/A   Overcast
9:55 PM 27.5 °F 22.2 °F 17.1 °F 65% 30.17 in 10.0 mi North 4.6 mph - N/A   Mostly Cloudy
10:55 PM 27.7 °F 22.4 °F 16.0 °F 62% 30.19 in 10.0 mi Variable 4.6 mph - N/A   Overcast
11:55 PM 27.1 °F 21.8 °F 15.1 °F 60% 30.19 in 10.0 mi NNE 4.6 mph - N/A   Overcast